LRBS Weather Reports


Display with metric or nautical units.
time (UTC)temp
F
wind
direction
speed
MPH
gust
MPH
rain 1hr
in
rain 24hr
in
rain mn
in
humidity
%
barometer
mb
20260508043314 59 2.0 0.0 0.00 0.00 0.00 88 1015.0
20260508041812 55 60 3.0 0.0 0.00 0.00 0.00 94 1015.0
20260508040315 55 60 3.0 0.0 0.00 0.00 0.00 94 1015.0
20260508034812 55 70 5.0 0.0 0.00 0.00 0.00 94 1015.0
20260508033314 55 70 5.0 0.0 0.00 0.00 0.00 94 1015.0
20260508031814 55 50 3.0 0.0 0.00 0.00 0.00 94 1015.0
20260508030314 55 50 3.0 0.0 0.00 0.00 0.00 94 1015.0
20260508024814 57 2.0 0.0 0.00 0.00 0.00 82 1015.0
20260508023315 57 2.0 0.0 0.00 0.00 0.00 82 1015.0
20260508021815 57 2.0 0.0 0.00 0.00 0.00 82 1015.0
20260508020314 57 2.0 0.0 0.00 0.00 0.00 82 1015.0
20260508014814 57 50 3.0 0.0 0.00 0.00 0.00 82 1015.0
20260508013314 57 50 3.0 0.0 0.00 0.00 0.00 82 1015.0
20260508011814 57 70 5.0 0.0 0.00 0.00 0.00 88 1015.0
20260508010314 57 70 5.0 0.0 0.00 0.00 0.00 88 1015.0
20260508004815 57 60 5.0 0.0 0.00 0.00 0.00 88 1015.0
20260508003314 57 60 5.0 0.0 0.00 0.00 0.00 88 1015.0
20260508001815 59 20 5.0 0.0 0.00 0.00 0.00 82 1015.0
20260508000314 59 20 5.0 0.0 0.00 0.00 0.00 82 1015.0
20260507234815 59 30 5.0 0.0 0.00 0.00 0.00 82 1015.0
20260507233314 59 30 5.0 0.0 0.00 0.00 0.00 82 1015.0
20260507231814 61 10 3.0 0.0 0.00 0.00 0.00 83 1015.0
20260507230314 61 10 3.0 0.0 0.00 0.00 0.00 83 1015.0
20260507224814 63 40 3.0 0.0 0.00 0.00 0.00 77 1015.0
20260507223430 63 40 3.0 0.0 0.00 0.00 0.00 77 1015.0
20260507221814 64 360 3.0 0.0 0.00 0.00 0.00 73 1015.0
20260507220313 64 360 3.0 0.0 0.00 0.00 0.00 73 1015.0
20260507214814 64 270 5.0 0.0 0.00 0.00 0.00 78 1015.0
20260507213316 64 270 5.0 0.0 0.00 0.00 0.00 78 1015.0
20260507211814 66 240 5.0 0.0 0.00 0.00 0.00 73 1015.0
20260507210314 66 240 5.0 0.0 0.00 0.00 0.00 73 1015.0
20260507204814 66 1.0 0.0 0.00 0.00 0.00 73 1015.0
20260507203314 66 1.0 0.0 0.00 0.00 0.00 73 1015.0
20260507201814 66 1.0 0.0 0.00 0.00 0.00 68 1015.0
20260507200315 66 1.0 0.0 0.00 0.00 0.00 68 1015.0
20260507194820 68 0 0.0 0.0 0.00 0.00 0.00 64 1015.0
20260507193314 68 0 0.0 0.0 0.00 0.00 0.00 64 1015.0
20260507191814 66 80 5.0 0.0 0.00 0.00 0.00 68 1015.0
20260507190315 66 80 5.0 0.0 0.00 0.00 0.00 68 1015.0
20260507184816 68 2.0 0.0 0.00 0.00 0.00 64 1015.0
20260507183314 68 2.0 0.0 0.00 0.00 0.00 64 1015.0
20260507181814 70 70 6.0 0.0 0.00 0.00 0.00 57 1014.0
20260507180314 70 70 6.0 0.0 0.00 0.00 0.00 57 1014.0
20260507174814 72 60 5.0 0.0 0.00 0.00 0.00 53 1014.0
20260507173315 72 60 5.0 0.0 0.00 0.00 0.00 53 1014.0
20260507171815 73 2.0 0.0 0.00 0.00 0.00 50 1014.0
20260507170314 73 2.0 0.0 0.00 0.00 0.00 50 1014.0
20260507164815 77 260 3.0 0.0 0.00 0.00 0.00 39 1014.0
20260507163314 77 260 3.0 0.0 0.00 0.00 0.00 39 1014.0
20260507161814 77 240 5.0 0.0 0.00 0.00 0.00 34 1014.0
20260507160314 77 240 5.0 0.0 0.00 0.00 0.00 34 1014.0
20260507154814 79 100 3.0 0.0 0.00 0.00 0.00 34 1014.0
20260507153314 79 100 3.0 0.0 0.00 0.00 0.00 34 1014.0
20260507151814 77 120 7.0 0.0 0.00 0.00 0.00 39 1014.0
20260507150314 77 120 7.0 0.0 0.00 0.00 0.00 39 1014.0
20260507144814 81 110 8.0 0.0 0.00 0.00 0.00 34 1014.0
20260507143316 81 110 8.0 0.0 0.00 0.00 0.00 34 1014.0
20260507141814 79 110 7.0 0.0 0.00 0.00 0.00 34 1014.0
20260507140314 79 110 7.0 0.0 0.00 0.00 0.00 34 1014.0
20260507134814 81 90 8.0 0.0 0.00 0.00 0.00 34 1014.0
20260507133314 81 90 8.0 0.0 0.00 0.00 0.00 34 1014.0
20260507131811 79 100 7.0 0.0 0.00 0.00 0.00 34 1015.0
20260507130314 79 100 7.0 0.0 0.00 0.00 0.00 34 1015.0
20260507124814 79 5.0 0.0 0.00 0.00 0.00 34 1015.0
20260507123352 79 5.0 0.0 0.00 0.00 0.00 34 1015.0
20260507121814 77 110 5.0 0.0 0.00 0.00 0.00 39 1015.0
20260507120314 77 110 5.0 0.0 0.00 0.00 0.00 39 1015.0
20260507114814 77 120 6.0 0.0 0.00 0.00 0.00 34 1015.0
20260507113330 77 100 7.0 0.0 0.00 0.00 0.00 36 1016.0
20260507111814 77 100 7.0 0.0 0.00 0.00 0.00 36 1016.0
20260507110314 77 100 7.0 0.0 0.00 0.00 0.00 36 1016.0
20260507104813 75 160 7.0 0.0 0.00 0.00 0.00 34 1016.0
20260507103314 75 160 7.0 0.0 0.00 0.00 0.00 34 1016.0
20260507101814 73 5.0 0.0 0.00 0.00 0.00 36 1016.0
20260507100314 73 5.0 0.0 0.00 0.00 0.00 36 1016.0
20260507094814 73 60 6.0 0.0 0.00 0.00 0.00 36 1016.0
20260507093314 73 60 6.0 0.0 0.00 0.00 0.00 36 1016.0
20260507091815 73 80 6.0 0.0 0.00 0.00 0.00 38 1016.0
20260507090314 73 80 6.0 0.0 0.00 0.00 0.00 38 1016.0
20260507084814 70 90 8.0 0.0 0.00 0.00 0.00 43 1016.0
20260507083314 70 90 8.0 0.0 0.00 0.00 0.00 43 1016.0
20260507081814 68 80 9.0 0.0 0.00 0.00 0.00 46 1016.0
20260507080315 68 80 9.0 0.0 0.00 0.00 0.00 46 1016.0
20260507074814 64 60 6.0 0.0 0.00 0.00 0.00 56 1016.0
20260507073314 64 60 6.0 0.0 0.00 0.00 0.00 56 1016.0
20260507071814 63 60 8.0 0.0 0.00 0.00 0.00 56 1016.0
20260507070314 63 60 8.0 0.0 0.00 0.00 0.00 56 1016.0
20260507064814 61 70 7.0 0.0 0.00 0.00 0.00 59 1016.0
20260507063314 61 70 7.0 0.0 0.00 0.00 0.00 59 1016.0
20260507061826 57 60 7.0 0.0 0.00 0.00 0.00 72 1016.0
20260507060314 57 60 7.0 0.0 0.00 0.00 0.00 72 1016.0
20260507054814 55 70 8.0 0.0 0.00 0.00 0.00 72 1016.0
20260507053321 55 70 8.0 0.0 0.00 0.00 0.00 72 1016.0
20260507051814 54 70 8.0 0.0 0.00 0.00 0.00 77 1016.0
20260507050314 54 70 8.0 0.0 0.00 0.00 0.00 77 1016.0
20260507044814 52 60 6.0 0.0 0.00 0.00 0.00 82 1016.0